Location: *
(44.3925°N, 5.4708°E)
Time: 13:27:31
(UTC+00:00)

Cosmos 1980 - Pass Details

Date: 18 September 2019
Orbit: 841 x 845 km, 71.0° (Epoch: 21 October)

Event Time Altitude Azimuth Distance (km) Brightness Sun altitude
Rises 19:51:16 0° 331° (NNW) 3,406 7.7 -22.7°
Reaches altitude 10° 19:53:45 10° 329° (NNW) 2,467 6.9 -23.1°
Maximum altitude 19:59:19 62° 249° (WSW) 940 4.0 -24.0°
Enters shadow 20:01:35 35° 183° (S) 1,319 4.5 -24.3°
